Location: Chavenne
(46.6022°N, 3.2951°E)
Time: 11:04:43
(UTC+00:00)

Cosmos 2151 - Pass Details

Date: 09 April 2020
Orbit: 582 x 600 km, 82.5° (Epoch: 05 June)

Event Time Altitude Azimuth Distance (km) Brightness Sun altitude
Rises 21:01:50 0° 351° (N) 2,818 7.2 -24.1°
Reaches altitude 10° 21:04:02 10° 353° (N) 1,913 6.2 -24.3°
Enters shadow 21:07:39 63° 12° (NNE) 656 3.2 -24.8°
